Home   Weather   Altenburg   Past weeks

Flag for Germany Past Weather in Altenburg, Thuringia, Germany — Yesterday and Last 2 Weeks

Now
46 °F

Scattered showers. Broken clouds.


Feels Like: 44 °F
Forecast: 39 / 54 °F
Wind: 6 mph from South

Location: Leipzig-Schkeuditz

Current Time: Apr 27, 2017 at 7:26:02 pm

Latest Report: Apr 27, 2017 at 6:50 pm


Visibility: N/A

Pressure: 29.95 "Hg

Humidity: 66%

Dew Point: 36 °F

Location of AltenburgLocation

Past Weather in Altenburg — Graph

°F

Altenburg Temperature Yesterday

Maximum temperature yesterday: 52 °F (at 3:50 pm)
Minimum temperature yesterday: 34 °F (at 3:50 am)
Average temperature yesterday: 42 °F

High & Low Weather Summary for the Past Weeks

 TemperatureHumidityPressure
High59 °F (Apr 24, 4:50 pm)100% (Apr 12, 10:50 pm)30.60 "Hg (Apr 12, 10:50 pm)
Low28 °F (Apr 20, 3:50 am)37% (Apr 25, 6:50 pm)29.59 "Hg (Apr 25, 5:50 am)
Average44 °F71%30.05 "Hg
* Reported Apr 12 6:20 pm — Apr 27 6:20 pm, Altenburg, Weather by CustomWeather, © 2017

Note: Actual official high and low records may vary slightly from our data, if they occured in-between our weather recording intervals... More about our weather records

Advertising

Altenburg Weather History for the Previous 24 Hours

Scroll right to see more
 ConditionsComfort  
Time TempWeatherWind HumidityBarometerVisibility
6:20 pm
Thu, Apr 27
48 °FScattered showers. Scattered clouds.7 mph66%29.95 "HgN/A
5:50 pm48 °FScattered showers. Scattered clouds.10 mph71%29.95 "HgN/A
5:20 pm48 °FSprinkles. Partly sunny.10 mph71%29.95 "HgN/A
4:50 pm48 °FSprinkles. Partly sunny.10 mph58%29.95 "HgN/A
4:20 pm52 °FScattered showers. Scattered clouds.6 mph47%29.95 "HgN/A
3:50 pm50 °FScattered showers. Scattered clouds.10 mph54%29.95 "HgN/A
3:20 pm50 °FPartly sunny.5 mph47%29.95 "HgN/A
2:50 pm50 °FScattered clouds.8 mph50%29.95 "HgN/A
2:20 pm50 °FScattered showers. Scattered clouds.5 mph50%29.95 "HgN/A
1:50 pm52 °FScattered showers. Partly sunny.3 mph44%29.95 "HgN/A
1:20 pm48 °FSprinkles. Scattered clouds.8 mph54%29.95 "HgN/A
12:50 pm50 °FScattered clouds.3 mph47%29.95 "HgN/A
12:20 pm50 °FScattered clouds.6 mph47%29.98 "HgN/A
11:50 am48 °FScattered clouds.6 mph50%29.95 "HgN/A
11:20 am48 °FPassing clouds.8 mph54%29.95 "HgN/A
10:50 am46 °FScattered clouds.6 mph62%29.98 "HgN/A
10:20 am46 °FBroken clouds.6 mph62%29.95 "HgN/A
9:50 am45 °FBroken clouds.6 mph71%29.95 "HgN/A
9:20 am43 °FBroken clouds.5 mph71%29.95 "HgN/A
8:50 am39 °FSunny.5 mph81%29.95 "Hg10 mi
8:20 am39 °FPassing clouds.5 mph75%29.95 "HgN/A
7:50 am36 °FSunny.5 mph87%29.95 "Hg10 mi
6:50 am34 °FSunny.3 mph87%29.92 "Hg10 mi
6:20 am34 °FSunny.6 mph87%29.92 "Hg10 mi
5:50 am32 °FClear.6 mph93%29.92 "Hg10 mi
4:50 am32 °FClear.3 mph93%29.89 "Hg10 mi
4:20 am32 °FClear.2 mph93%29.89 "Hg10 mi
3:50 am34 °FClear.1 mph87%29.89 "Hg10 mi
3:20 am34 °FClear.2 mph87%29.89 "Hg10 mi
2:50 am37 °FClear.2 mph81%29.89 "Hg10 mi
2:20 am36 °FClear.1 mph87%29.92 "Hg10 mi
1:50 am37 °FClear.1 mph81%29.92 "Hg10 mi
12:50 am37 °FPassing clouds.3 mph81%29.92 "HgN/A
11:50 pm
Wed, Apr 26
39 °FPassing clouds.5 mph70%29.89 "HgN/A
11:20 pm39 °FClear.6 mph70%29.89 "Hg10 mi
10:50 pm41 °FPassing clouds.5 mph66%29.89 "HgN/A
10:20 pm41 °FPassing clouds.3 mph66%29.89 "HgN/A
9:50 pm41 °FClear.2 mph66%29.89 "Hg10 mi
9:20 pm41 °FClear.3 mph70%29.89 "Hg10 mi
8:50 pm45 °FClear.5 mph57%29.89 "Hg10 mi
7:50 pm46 °FSunny.3 mph50%29.89 "Hg10 mi
7:20 pm48 °FPassing clouds.3 mph46%29.89 "HgN/A
Weather by CustomWeather, © 2017

See weather overviewHow to use our weather pages